TJS-1

Last updated on Wed May 14 2025 00:02:43 GMT+0000 (Coordinated Universal Time)

1 40892U 15046A 25133.54191520 -.00000140 00000+0 00000+0 0 9994 2 40892 0.0530 123.1560 0002701 312.8253 145.6670 1.00269968 35564
UTC large
Height (km)
Speed (km/s)
/
Latitude / Longitude
Inclination (degrees)
Orbital Period (minutes)
Azimuth
Elevation
Range (km)
Doppler Factor

Next 0 passes for location: London (51.5072 / 0.1276)

Sorry there are no passes over London.